• Join FlightAware (Why Join?)
  • Login
  • US Flag 
04:42AM EDT


 

Airport Tracker/Info


-or-


 

Live Flight TrackerFlight Track Log ✈ DAL1515 ✈ 12-Jul-2013 ✈ KATL - KALB

Flight Track Log - Related Links

Times and Time Zones

All times are in EDT time to prevent confusion due to time zone crossing. See the DAL1515 flight status page for this flight to view local times or setup timezone preferences in your user account.

Time Position Orientation Groundspeed Altitude Reporting Facility
EDT Latitude Longitude Course Direction KTS MPH feet Rate Location/Type
09:54PM 33.6500 -84.3667 North 184 212 2,300  Level Atlanta TRACON
09:55PM 33.6667 -84.2833 76° East 268 308 4,500 2,400 Climbing Atlanta TRACON
09:56PM 33.7301 -84.1667 North  Level FlightAware Approximate
09:56PM 33.7333 -84.2833 360° North 281 323 7,200  Level Atlanta TRACON
09:57PM 33.8543 -84.1876 320° Northwest  Level FlightAware Approximate
09:58PM 33.9610 -84.2667 North  Level FlightAware Approximate
09:58PM 33.9108 -84.2817 360° North 304 350 11,400  Level Atlanta Center
09:59PM 34.0914 -84.2667 North  Level FlightAware Approximate
09:59PM 34.0153 -84.2819 360° North 349 402 14,100  Level Atlanta Center
10:00PM 34.1175 -84.2847 359° North 344 396 17,300 1,920 Climbing Atlanta Center
10:01PM 34.2156 -84.2850 360° North 367 422 18,000 1,020 Climbing Atlanta Center
10:02PM 34.3283 -84.2828 North 393 452 19,400 1,740 Climbing Atlanta Center
10:03PM 34.4556 -84.2908 357° North 406 467 21,500 1,740 Climbing Atlanta Center
10:04PM 34.5725 -84.2733 North 411 473 22,900 1,320 Climbing Atlanta Center
10:05PM 34.6917 -84.2383 14° North 428 493 24,200 1,200 Climbing Atlanta Center
10:06PM 34.8147 -84.2058 12° North 441 507 25,400 1,260 Climbing Atlanta Center
10:07PM 34.9192 -84.1756 13° North 436 502 26,800 1,260 Climbing Atlanta Center
10:08PM 35.0422 -84.1403 13° North 436 502 28,000 1,080 Climbing Atlanta Center
10:09PM 35.1653 -84.1072 12° North 442 509 29,000 480 Climbing Atlanta Center
10:10PM 35.2864 -84.0719 13° North 442 509 29,000  Level Atlanta Center
10:11PM 35.4094 -84.0361 13° North 447 514 29,000  Level Atlanta Center
10:12PM 35.5242 -84.0006 14° North 447 514 29,000  Level Atlanta Center
10:13PM 35.6389 -83.9697 12° North 426 490 29,000  Level Atlanta Center
10:14PM 35.7517 -83.9364 13° North 420 483 29,000  Level Atlanta Center
10:15PM 35.8706 -83.9003 14° North 420 483 29,000  Level Atlanta Center
10:16PM 35.9892 -83.8436 21° North 436 502 29,000  Level Atlanta Center
10:17PM 36.1039 -83.7664 29° Northeast 453 521 29,000  Level Atlanta Center
10:18PM 36.2183 -83.6964 26° Northeast 459 528 29,000  Level Atlanta Center
10:19PM 36.3453 -83.6161 27° Northeast 459 528 29,000  Level Atlanta Center
10:20PM 36.4672 -83.5347 28° Northeast 467 537 29,000  Level Indianapolis Center
10:22PM 36.5761 -83.4672 26° Northeast 479 551 29,000  Level Indianapolis Center
10:22PM 36.6881 -83.3803 32° Northeast 475 547 29,000  Level Indianapolis Center
10:24PM 36.7928 -83.2803 37° Northeast 472 543 29,000  Level Indianapolis Center
10:25PM 36.8931 -83.1669 42° Northeast 481 554 29,000  Level Indianapolis Center
10:26PM 36.9933 -83.0506 43° Northeast 484 557 29,000  Level Indianapolis Center
10:27PM 37.0953 -82.9294 43° Northeast 492 566 29,000  Level Indianapolis Center
10:28PM 37.1942 -82.8092 44° Northeast 491 565 29,000  Level Indianapolis Center
10:29PM 37.2933 -82.6903 44° Northeast 492 566 29,000  Level Indianapolis Center
10:30PM 37.3933 -82.5714 43° Northeast 494 568 29,000  Level Indianapolis Center
10:31PM 37.4928 -82.4161 51° Northeast 494 568 29,000  Level Indianapolis Center
10:32PM 37.5617 -82.2719 59° Northeast 481 554 29,000  Level Indianapolis Center
10:33PM 37.6269 -82.1261 60° Northeast 477 549 29,000  Level Indianapolis Center
10:34PM 37.7108 -81.9950 51° Northeast 482 555 29,000  Level Indianapolis Center
10:35PM 37.8008 -81.8650 49° Northeast 489 563 29,000  Level Indianapolis Center
10:36PM 37.8939 -81.7550 43° Northeast 490 564 29,000  Level Indianapolis Center
10:37PM 38.0108 -81.6647 31° Northeast 492 566 29,000  Level Indianapolis Center
10:38PM 38.1292 -81.5708 32° Northeast 500 575 29,000  Level Indianapolis Center
10:39PM 38.2467 -81.4806 31° Northeast 497 572 29,000  Level Indianapolis Center
10:40PM 38.3822 -81.3614 35° Northeast 496 571 29,000  Level Indianapolis Center
10:41PM 38.4764 -81.2369 46° Northeast 494 568 29,000  Level Indianapolis Center
10:42PM 38.5614 -81.1058 50° Northeast 485 558 29,100 300 Climbing Indianapolis Center
10:43PM 38.6475 -80.9719 51° Northeast 489 563 29,700 600 Climbing Indianapolis Center
10:44PM 38.7369 -80.8336 50° Northeast 505 581 30,400 600 Climbing Indianapolis Center
10:45PM 38.8261 -80.6922 51° Northeast 510 587 31,000 240 Climbing Indianapolis Center
10:46PM 38.9158 -80.5522 50° Northeast 511 588 31,000  Level Indianapolis Center
10:47PM 39.0039 -80.4128 51° Northeast 505 581 31,000  Level Indianapolis Center
10:48PM 39.1081 -80.2444 51° Northeast 502 578 31,000  Level Indianapolis Center
10:49PM 39.1953 -80.1056 51° Northeast 500 575 31,000  Level Indianapolis Center
10:50PM 39.2819 -79.9650 51° Northeast 500 575 31,000  Level Indianapolis Center
10:51PM 39.3689 -79.8250 51° Northeast 499 574 31,000  Level Indianapolis Center
10:52PM 39.4572 -79.6833 51° Northeast 506 582 31,000  Level Indianapolis Center
10:53PM 39.5461 -79.5375 52° Northeast 513 590 31,000  Level Indianapolis Center
10:54PM 39.6347 -79.3903 52° Northeast 517 595 31,000  Level Indianapolis Center
10:55PM 39.7442 -79.2197 50° Northeast 507 583 31,000  Level Cleveland Center
10:56PM 39.8319 -79.0744 52° Northeast 507 583 31,000  Level Cleveland Center
10:57PM 39.9197 -78.9292 52° Northeast 507 583 31,000  Level Cleveland Center
10:58PM 40.0050 -78.7808 53° Northeast 507 583 31,000  Level Cleveland Center
10:59PM 40.0942 -78.6344 51° Northeast 507 583 31,000  Level Cleveland Center
11:00PM 40.1814 -78.4878 52° Northeast 512 589 31,000  Level Cleveland Center
11:03PM 40.3858 -78.1397 52° Northeast 518 596 31,000  Level New York Center
11:04PM 40.4783 -77.9939 50° Northeast 518 596 31,000  Level New York Center
11:05PM 40.5800 -77.8625 44° Northeast 518 596 31,000  Level New York Center
11:06PM 40.6797 -77.7306 45° Northeast 513 590 31,000  Level New York Center
11:07PM 40.7697 -77.6136 45° Northeast 508 585 31,000  Level New York Center
11:08PM 40.8672 -77.4778 46° Northeast 503 579 31,000  Level New York Center
11:09PM 40.9733 -77.3314 46° Northeast 503 579 31,000 -660 Level New York Center
11:10PM 41.0628 -77.2189 43° Northeast 503 579 29,700 -1,020 Descending New York Center
11:11PM 41.1597 -77.0850 46° Northeast 503 579 29,000 -420 Descending New York Center
11:12PM 41.2586 -76.9506 46° Northeast 503 579 29,000  Level New York Center
11:13PM 41.3550 -76.8156 46° Northeast 503 579 29,000  Level New York Center
11:14PM 41.4514 -76.6831 46° Northeast 503 579 29,000  Level New York Center
11:15PM 41.5494 -76.5503 45° Northeast 503 579 29,000 -1,080 Level New York Center
11:16PM 41.7128 -76.3200 46° Northeast 495 570 26,000 -1,800 Descending Boston Center
11:17PM 41.8000 -76.2028 45° Northeast 463 533 24,000 -1,020 Descending Boston Center
11:18PM 41.8789 -76.0903 47° Northeast 433 498 24,000  Level Boston Center
11:19PM 41.9617 -75.9722 47° Northeast 428 493 24,000  Level Boston Center
11:20PM 42.0406 -75.8536 48° Northeast 428 493 24,000 -120 Level Boston Center
11:22PM 42.1300 -75.7216 48° Northeast  Level FlightAware Approximate
11:22PM 42.1650 -75.5831 48° Northeast 423 487 23,800  Level Boston Center
11:23PM 42.2125 -75.4453 65° Northeast 411 473 22,500 -1,200 Descending Boston Center
11:24PM 42.2578 -75.3072 66° East 405 466 21,400 -1,200 Descending Boston Center
11:25PM 42.3072 -75.1633 65° Northeast 395 455 20,200 -1,440 Descending Boston Center
11:26PM 42.3478 -75.0358 67° East 376 433 18,600 -1,680 Descending Boston Center
11:27PM 42.3903 -74.9111 65° Northeast 371 427 16,900 -1,860 Descending Boston Center
11:28PM 42.4217 -74.8000 69° East 350 403 15,200 -1,920 Descending Boston Center
11:29PM 42.4639 -74.6775 65° Northeast 333 383 13,200 -1,860 Descending Boston Center
11:30PM 42.4992 -74.5661 67° East 321 369 11,300 -1,140 Descending Boston Center
11:31PM 42.5347 -74.4519 67° East 325 374 11,000 -180 Descending Boston Center
11:32PM 42.5678 -74.3486 66° East 297 342 11,000 -600 Level Boston Center
11:33PM 42.5944 -74.2450 71° East 291 335 9,900 -1,680 Descending Boston Center
11:34PM 42.5983 -74.1381 87° East 281 323 7,700 -1,860 Descending Boston Center
11:35PM 42.6058 -74.0508 83° East 268 308 6,200 -1,500 Descending Boston Center
11:36PM 42.6133 -73.9578 84° East 256 295 4,700 -1,500 Descending Boston Center